OneWeb SL0198

operational
NORAD ID: 48216 Int'l Des: 2021-031 Owner: ONEWEBN Country: UK Constellation: oneweb
LEOCIRCULARPOLARONEWEB_TYPE

关于 OneWeb SL0198

正在加载描述...

实时位置

正在加载3D地球...

即将过境

高度历史

Altitude vs Time

uPlot chart will show altitude changes over time

两行轨道根数

1 48216U 21031G 26034.33551969 -.00000159 00000-0 -46447-3 0 9999
2 48216 87.9030 316.4049 0001702 93.4642 266.6683 13.14503817230909
Epoch: Feb 3, 2026 • Age: 14 hours

当前状态

高度 1228.1 km
速度 7.24 km/s
星下点 -54.78°S, 34.7°E
发射日期 Apr 25, 2021
运行时间 4.7 years
类型 internet

技术详情

分类 Payload
质量 148.00 kg
干质量 140.00 kg
总质量 148.00 kg
长度 1.30 m
直径 1.00 m
跨度 5.00 m
形状 Trapezoid+2 pan
制造商 ONEWUS
平台类型 ARROW
阶段状态 In Orbit
所有者/国家 ONEWEBN/UK

大型星座

Loading constellations...